Location: Contre
(49.7477°N, 2.0963°E)
Time: 22:15:30
(UTC+00:00)

Cosmos 1844 Rocket - Pass Details

Date: 03 February 2023
Orbit: 825 x 843 km, 71.0° (Epoch: 28 March)

Event Time Altitude Azimuth Distance (km) Brightness Sun altitude
Rises 17:40:05 0° 332° (NNW) 3,377 6.0 -8.5°
Reaches altitude 10° 17:42:35 10° 337° (NNW) 2,439 5.2 -8.9°
Maximum altitude 17:48:05 57° 56° (NE) 975 2.7 -9.7°
Drops below altitude 10° 17:53:33 10° 135° (SE) 2,425 4.8 -10.6°
Sets 17:56:01 0° 139° (SE) 3,355 5.5 -11.0°
